User: anonymous   Login
Location: Oshawa
(43.9000°N, 78.8670°W)
Time: 09:37:57
(UTC-05:00)
Language:

Cosmos 839 Rocket - Orbit

View from above orbital plane
View from above orbital plane
View from above satellite
View from above satellite

Ground track
Ground track

The orbit data is extracted from the following two-line orbital elements,

1 09013U 76067B   15028.84479725  .00000005  00000-0  20014-3 0  5778
2 09013 065.8635 256.2850 0708088 053.5536 001.5491 12.35314543739149
Epoch (UTC): 28 January 2015 20:16:30
Eccentricity: 0.0708088
inclination: 65.8635°
perigee height: 967 km
apogee height: 2086 km
right ascension of ascending node: 256.2850°
argument of perigee: 53.5536°
revolutions per day: 12.35314543
mean anomaly at epoch: 1.5491°
orbit number at epoch: 73914

The dashed part of the orbit path shows where the satellite is in the earth's shadow,  

DLR